THY146 LPPR-LEAS

Flight info

Callsign THY146
Flight time 0h 56m
Altitude 24000
Route TURON P600 STG M190 MASIP
Aircraft A320/M-SDE3FGHIRWY/LB1

Departure

Time 2026-04-25 23:17
Airport Francisco de Sá Carneiro Airport (LPPR)

Arrival

Time 2026-04-26 00:13
Airport Asturias Airport (LEAS)
Time Latitude Longitude Altitude Speed Heading
2026-04-25 22:55 41.23424 -8.67474 234 ft 0 kts 259°
2026-04-25 23:11 41.23425 -8.67470 234 ft 2 kts 259°
2026-04-25 23:11 41.23429 -8.67448 235 ft 2 kts 254°
2026-04-25 23:11 41.23433 -8.67427 236 ft 2 kts 254°
2026-04-25 23:11 41.23438 -8.67405 234 ft 2 kts 241°
2026-04-25 23:12 41.23448 -8.67388 235 ft 2 kts 206°
2026-04-25 23:12 41.23465 -8.67381 236 ft 2 kts 171°
2026-04-25 23:12 41.23466 -8.67381 236 ft 0 kts 169°
2026-04-25 23:13 41.23465 -8.67381 236 ft 1 kts 169°
2026-04-25 23:14 41.23436 -8.67374 234 ft 8 kts 169°
2026-04-25 23:14 41.23369 -8.67364 234 ft 11 kts 188°
2026-04-25 23:14 41.23332 -8.67435 234 ft 10 kts 259°
2026-04-25 23:14 41.23318 -8.67532 236 ft 11 kts 259°
2026-04-25 23:15 41.23309 -8.67591 238 ft 0 kts 257°
2026-04-25 23:15 41.23306 -8.67607 239 ft 7 kts 257°
2026-04-25 23:15 41.23298 -8.67703 241 ft 13 kts 283°
2026-04-25 23:16 41.23356 -8.67748 240 ft 6 kts 349°
2026-04-25 23:16 41.23388 -8.67756 238 ft 18 kts 349°
2026-04-25 23:16 41.23780 -8.67859 221 ft 96 kts 349°
2026-04-25 23:16 41.24636 -8.68082 205 ft 152 kts 348°
2026-04-25 23:17 41.25797 -8.68393 448 ft 181 kts 348°
2026-04-25 23:17 41.27104 -8.68738 977 ft 203 kts 349°
2026-04-25 23:17 41.28556 -8.69115 1505 ft 227 kts 350°
2026-04-25 23:17 41.30184 -8.69533 2152 ft 247 kts 350°
2026-04-25 23:18 41.31895 -8.69978 3104 ft 253 kts 349°
2026-04-25 23:18 41.33638 -8.70433 4115 ft 258 kts 350°
2026-04-25 23:18 41.35420 -8.70902 5133 ft 263 kts 349°
2026-04-25 23:18 41.37234 -8.71381 6069 ft 269 kts 349°
2026-04-25 23:19 41.39100 -8.71873 6984 ft 276 kts 349°
2026-04-25 23:19 41.41003 -8.72370 7894 ft 281 kts 351°
2026-04-25 23:19 41.42969 -8.72538 8784 ft 286 kts
2026-04-25 23:19 41.44805 -8.72170 9605 ft 291 kts 11°
2026-04-25 23:20 41.46813 -8.71657 10201 ft 296 kts 11°
2026-04-25 23:20 41.48885 -8.71128 10596 ft 318 kts 11°
2026-04-25 23:20 41.51123 -8.70558 11093 ft 332 kts 11°
2026-04-25 23:20 41.53410 -8.69978 11861 ft 337 kts 10°
2026-04-25 23:21 41.55724 -8.69392 12685 ft 340 kts 10°
2026-04-25 23:21 41.58056 -8.68801 13524 ft 342 kts 10°
2026-04-25 23:21 41.60404 -8.68203 14280 ft 346 kts 10°
2026-04-25 23:21 41.62784 -8.67598 14958 ft 350 kts 10°
2026-04-25 23:22 41.65191 -8.66986 15593 ft 354 kts 10°
2026-04-25 23:22 41.67631 -8.66369 16226 ft 359 kts 10°
2026-04-25 23:22 41.70104 -8.65748 16860 ft 364 kts 10°
2026-04-25 23:23 41.75150 -8.64476 18153 ft 373 kts 10°
2026-04-25 23:23 41.77722 -8.63818 18733 ft 378 kts 10°
2026-04-25 23:23 41.80323 -8.63149 19339 ft 381 kts 10°
2026-04-25 23:23 41.82932 -8.62477 19986 ft 383 kts 10°
2026-04-25 23:24 41.85525 -8.61809 20632 ft 385 kts 10°
2026-04-25 23:24 41.88165 -8.61127 21263 ft 387 kts 10°
2026-04-25 23:24 41.90821 -8.60441 21861 ft 390 kts 10°
2026-04-25 23:24 41.93488 -8.59756 22426 ft 392 kts 10°
2026-04-25 23:25 41.96180 -8.59070 23012 ft 395 kts 10°
2026-04-25 23:25 41.98888 -8.58381 23589 ft 397 kts 10°
2026-04-25 23:25 42.01614 -8.57685 23983 ft 400 kts 10°
2026-04-25 23:25 42.04349 -8.56981 24091 ft 400 kts 10°
2026-04-25 23:26 42.07086 -8.56284 24121 ft 400 kts
2026-04-25 23:26 42.09836 -8.55709 24118 ft 400 kts
2026-04-25 23:26 42.12593 -8.55251 24115 ft 399 kts
2026-04-25 23:26 42.15359 -8.54855 24112 ft 400 kts
2026-04-25 23:27 42.18128 -8.54477 24109 ft 400 kts
2026-04-25 23:27 42.20893 -8.54088 24109 ft 400 kts
2026-04-25 23:27 42.23660 -8.53675 24111 ft 400 kts
2026-04-25 23:27 42.26433 -8.53242 24115 ft 400 kts
2026-04-25 23:28 42.29168 -8.52805 24112 ft 400 kts
2026-04-25 23:28 42.31939 -8.52355 24110 ft 400 kts
2026-04-25 23:28 42.34705 -8.51903 24112 ft 401 kts
2026-04-25 23:28 42.37479 -8.51455 24119 ft 401 kts
2026-04-25 23:29 42.40252 -8.51011 24123 ft 401 kts
2026-04-25 23:29 42.43022 -8.50571 24126 ft 401 kts
2026-04-25 23:29 42.45793 -8.50129 24131 ft 401 kts
2026-04-25 23:29 42.48568 -8.49684 24132 ft 402 kts
2026-04-25 23:30 42.51350 -8.49234 24140 ft 402 kts
2026-04-25 23:30 42.54085 -8.48792 24146 ft 402 kts
2026-04-25 23:30 42.56866 -8.48342 24153 ft 402 kts
2026-04-25 23:30 42.59647 -8.47893 24156 ft 403 kts
2026-04-25 23:31 42.62437 -8.47446 24157 ft 403 kts
2026-04-25 23:31 42.65224 -8.46998 24158 ft 403 kts
2026-04-25 23:31 42.68020 -8.46546 24159 ft 404 kts
2026-04-25 23:31 42.70809 -8.46098 24161 ft 404 kts
2026-04-25 23:32 42.73253 -8.45705 24132 ft 408 kts
2026-04-25 23:32 42.76047 -8.45252 24164 ft 410 kts
2026-04-25 23:32 42.78924 -8.44782 24163 ft 411 kts
2026-04-25 23:32 42.81607 -8.44341 24165 ft 411 kts
2026-04-25 23:33 42.84448 -8.43874 24165 ft 411 kts
2026-04-25 23:33 42.87248 -8.43066 24168 ft 412 kts 18°
2026-04-25 23:33 42.89863 -8.41460 24164 ft 413 kts 31°
2026-04-25 23:33 42.92166 -8.39118 24163 ft 414 kts 43°
2026-04-25 23:34 42.93979 -8.36263 24165 ft 414 kts 56°
2026-04-25 23:34 42.95347 -8.32819 24165 ft 413 kts 69°
2026-04-25 23:34 42.96349 -8.29149 24168 ft 413 kts 70°
2026-04-25 23:34 42.97347 -8.25457 24167 ft 413 kts 70°
2026-04-25 23:35 42.98346 -8.21777 24168 ft 413 kts 70°
2026-04-25 23:35 42.99337 -8.18142 24170 ft 413 kts 70°
2026-04-25 23:35 43.00340 -8.14459 24168 ft 413 kts 70°
2026-04-25 23:35 43.01339 -8.10771 24169 ft 414 kts 70°
2026-04-25 23:36 43.02338 -8.07081 24173 ft 414 kts 70°
2026-04-25 23:36 43.03338 -8.03384 24177 ft 414 kts 70°
2026-04-25 23:36 43.04338 -7.99672 24178 ft 415 kts 70°
2026-04-25 23:36 43.05331 -7.95969 24181 ft 414 kts 70°
2026-04-25 23:37 43.06308 -7.92311 24180 ft 414 kts 70°
2026-04-25 23:37 43.07297 -7.88617 24181 ft 413 kts 70°
2026-04-25 23:37 43.08286 -7.84922 24185 ft 413 kts 70°
2026-04-25 23:37 43.09276 -7.81223 24186 ft 413 kts 70°
2026-04-25 23:38 43.10261 -7.77538 24186 ft 412 kts 70°
2026-04-25 23:38 43.11243 -7.73849 24185 ft 412 kts 70°
2026-04-25 23:38 43.12223 -7.70166 24190 ft 412 kts 70°
2026-04-25 23:38 43.13200 -7.66483 24187 ft 411 kts 70°
2026-04-25 23:39 43.14173 -7.62802 24189 ft 411 kts 70°
2026-04-25 23:39 43.15146 -7.59126 24234 ft 411 kts 70°
2026-04-25 23:39 43.16126 -7.55433 24187 ft 411 kts 70°
2026-04-25 23:39 43.17101 -7.51749 24193 ft 411 kts 70°
2026-04-25 23:40 43.18071 -7.48069 24194 ft 411 kts 70°
2026-04-25 23:40 43.19045 -7.44372 24194 ft 411 kts 70°
2026-04-25 23:40 43.20006 -7.40730 24195 ft 411 kts 70°
2026-04-25 23:40 43.20974 -7.37044 24197 ft 411 kts 70°
2026-04-25 23:41 43.21937 -7.33351 24195 ft 411 kts 70°
2026-04-25 23:41 43.22892 -7.29665 24081 ft 408 kts 71°
2026-04-25 23:41 43.23852 -7.25945 22969 ft 419 kts 71°
2026-04-25 23:41 43.24807 -7.22235 22224 ft 406 kts 71°
2026-04-25 23:42 43.25739 -7.18621 21351 ft 397 kts 71°
2026-04-25 23:42 43.26652 -7.15077 20447 ft 391 kts 71°
2026-04-25 23:42 43.27549 -7.11582 19541 ft 385 kts 71°
2026-04-25 23:42 43.28431 -7.08136 18657 ft 379 kts 71°
2026-04-25 23:43 43.29299 -7.04745 17676 ft 374 kts 71°
2026-04-25 23:43 43.30155 -7.01393 16811 ft 367 kts 71°
2026-04-25 23:43 43.30979 -6.98159 16355 ft 349 kts 71°
2026-04-25 23:43 43.31763 -6.95076 15903 ft 335 kts 71°
2026-04-25 23:44 43.32506 -6.92147 15472 ft 324 kts 71°
2026-04-25 23:44 43.33237 -6.89274 15044 ft 314 kts 70°
2026-04-25 23:44 43.33953 -6.86461 14631 ft 311 kts 70°
2026-04-25 23:44 43.34666 -6.83658 14220 ft 312 kts 70°
2026-04-25 23:45 43.35383 -6.80833 13769 ft 315 kts 70°
2026-04-25 23:45 43.36103 -6.77988 13323 ft 316 kts 70°
2026-04-25 23:45 43.36829 -6.75114 12900 ft 318 kts 71°
2026-04-25 23:45 43.37554 -6.72237 12477 ft 318 kts 71°
2026-04-25 23:46 43.38276 -6.69368 12055 ft 318 kts 71°
2026-04-25 23:46 43.39021 -6.66502 11633 ft 318 kts 66°
2026-04-25 23:46 43.40092 -6.63849 11213 ft 317 kts 54°
2026-04-25 23:46 43.41358 -6.61364 10799 ft 317 kts 54°
2026-04-25 23:47 43.42622 -6.58871 10397 ft 317 kts 54°
2026-04-25 23:47 43.43857 -6.56425 10235 ft 304 kts 55°
2026-04-25 23:47 43.45043 -6.54068 9800 ft 294 kts 55°
2026-04-25 23:47 43.45810 -6.52540 9604 ft 294 kts 55°
2026-04-25 23:48 43.47349 -6.49462 9088 ft 295 kts 55°
2026-04-25 23:48 43.48515 -6.47127 8701 ft 295 kts 55°
2026-04-25 23:48 43.49674 -6.44807 8351 ft 294 kts 56°
2026-04-25 23:48 43.50914 -6.42600 7899 ft 288 kts 45°
2026-04-25 23:49 43.52468 -6.40947 7490 ft 278 kts 29°
2026-04-25 23:49 43.54221 -6.39928 7099 ft 270 kts 17°
2026-04-25 23:49 43.55987 -6.39164 6717 ft 262 kts 18°
2026-04-25 23:49 43.57701 -6.38411 6337 ft 255 kts 18°
2026-04-25 23:50 43.59367 -6.37675 5969 ft 247 kts 19°
2026-04-25 23:50 43.60983 -6.36960 5617 ft 239 kts 19°
2026-04-25 23:50 43.62405 -6.35941 5276 ft 225 kts 47°
2026-04-25 23:50 43.63150 -6.34174 4978 ft 212 kts 79°
2026-04-25 23:51 43.63106 -6.32215 4661 ft 202 kts 107°
2026-04-25 23:51 43.62681 -6.30415 4395 ft 191 kts 108°
2026-04-25 23:51 43.62290 -6.28748 4133 ft 174 kts 108°
2026-04-25 23:51 43.61934 -6.27222 3869 ft 159 kts 107°
2026-04-25 23:52 43.61618 -6.25858 3658 ft 139 kts 107°
2026-04-25 23:52 43.61335 -6.24645 3467 ft 129 kts 107°
2026-04-25 23:52 43.61064 -6.23479 3276 ft 127 kts 107°
2026-04-25 23:52 43.60795 -6.22317 3090 ft 127 kts 107°
2026-04-25 23:53 43.60616 -6.21552 2976 ft 127 kts 107°
2026-04-25 23:53 43.60344 -6.20394 2807 ft 127 kts 108°
2026-04-25 23:53 43.60072 -6.19240 2631 ft 127 kts 108°
2026-04-25 23:53 43.59800 -6.18086 2461 ft 126 kts 108°
2026-04-25 23:54 43.59530 -6.16932 2281 ft 127 kts 108°
2026-04-25 23:54 43.59258 -6.15776 2112 ft 126 kts 108°
2026-04-25 23:54 43.58985 -6.14619 1929 ft 127 kts 108°
2026-04-25 23:54 43.58712 -6.13463 1756 ft 127 kts 108°
2026-04-25 23:55 43.58440 -6.12307 1578 ft 127 kts 107°
2026-04-25 23:55 43.58167 -6.11153 1445 ft 126 kts 108°
2026-04-25 23:55 43.57895 -6.10015 1220 ft 126 kts 107°
2026-04-25 23:55 43.57632 -6.08861 1060 ft 126 kts 107°
2026-04-25 23:56 43.57373 -6.07703 901 ft 126 kts 108°
2026-04-25 23:56 43.57115 -6.06543 721 ft 126 kts 111°
2026-04-25 23:56 43.56819 -6.05405 546 ft 126 kts 109°
2026-04-25 23:56 43.56538 -6.04270 424 ft 123 kts 101°
2026-04-25 23:57 43.56279 -6.03157 543 ft 134 kts 107°
2026-04-25 23:57 43.55961 -6.01872 946 ft 143 kts 109°
2026-04-25 23:57 43.55688 -6.00557 1558 ft 144 kts 105°
2026-04-25 23:57 43.55448 -5.99215 2178 ft 148 kts 104°
2026-04-25 23:58 43.55188 -5.97738 2515 ft 169 kts 104°
2026-04-25 23:58 43.54890 -5.96069 2896 ft 186 kts 104°
2026-04-25 23:58 43.54577 -5.94316 3520 ft 189 kts 104°
2026-04-25 23:58 43.54260 -5.92552 4249 ft 190 kts 104°
2026-04-25 23:59 43.53943 -5.90759 4857 ft 197 kts 104°
2026-04-25 23:59 43.53632 -5.88916 4990 ft 197 kts 100°
2026-04-25 23:59 43.53743 -5.87046 5004 ft 199 kts 71°
2026-04-25 23:59 43.54563 -5.85522 5007 ft 203 kts 38°
2026-04-26 00:00 43.55887 -5.84838 5011 ft 208 kts
2026-04-26 00:00 43.57313 -5.85213 5012 ft 211 kts 343°
2026-04-26 00:00 43.58703 -5.85863 5009 ft 211 kts 343°
2026-04-26 00:00 43.60096 -5.86518 5009 ft 212 kts 343°
2026-04-26 00:01 43.61491 -5.87172 4997 ft 212 kts 343°
2026-04-26 00:01 43.62866 -5.87815 5011 ft 211 kts 343°
2026-04-26 00:01 43.64262 -5.88465 5013 ft 211 kts 343°
2026-04-26 00:01 43.65659 -5.89116 5011 ft 212 kts 343°
2026-04-26 00:02 43.67054 -5.89767 5010 ft 212 kts 343°
2026-04-26 00:02 43.68453 -5.90419 5007 ft 212 kts 343°
2026-04-26 00:02 43.69848 -5.91068 5010 ft 212 kts 343°
2026-04-26 00:02 43.71248 -5.91720 5010 ft 212 kts 343°
2026-04-26 00:03 43.72642 -5.92372 5011 ft 212 kts 343°
2026-04-26 00:03 43.74036 -5.93024 5019 ft 211 kts 343°
2026-04-26 00:03 43.75431 -5.93673 5008 ft 211 kts 344°
2026-04-26 00:03 43.76824 -5.94322 5008 ft 211 kts 344°
2026-04-26 00:04 43.78217 -5.94977 5009 ft 212 kts 342°
2026-04-26 00:04 43.79430 -5.96107 5012 ft 214 kts 307°
2026-04-26 00:04 43.79937 -5.97985 5021 ft 214 kts 270°
2026-04-26 00:04 43.79553 -5.99936 5011 ft 211 kts 232°
2026-04-26 00:05 43.78482 -6.01267 5012 ft 208 kts 212°
2026-04-26 00:05 43.77347 -6.02516 5010 ft 209 kts 218°
2026-04-26 00:05 43.76260 -6.03854 5010 ft 209 kts 219°
2026-04-26 00:05 43.75181 -6.05204 5010 ft 209 kts 219°
2026-04-26 00:06 43.74092 -6.06559 5011 ft 209 kts 219°
2026-04-26 00:06 43.73007 -6.07897 5009 ft 209 kts 219°
2026-04-26 00:06 43.71934 -6.09210 5011 ft 208 kts 219°
2026-04-26 00:06 43.70847 -6.10533 5006 ft 208 kts 218°
2026-04-26 00:07 43.69786 -6.11819 5000 ft 196 kts 218°
2026-04-26 00:07 43.68797 -6.13016 5021 ft 181 kts 218°
2026-04-26 00:07 43.67856 -6.14149 5012 ft 178 kts 218°
2026-04-26 00:07 43.66923 -6.15268 5006 ft 177 kts 218°
2026-04-26 00:08 43.65990 -6.16385 5012 ft 177 kts 218°
2026-04-26 00:08 43.65071 -6.17488 5005 ft 169 kts 217°
2026-04-26 00:08 43.64197 -6.18537 5027 ft 165 kts 217°
2026-04-26 00:08 43.63333 -6.19570 4952 ft 162 kts 217°
2026-04-26 00:09 43.62496 -6.20530 4614 ft 152 kts 208°
2026-04-26 00:09 43.61479 -6.20857 3937 ft 156 kts 169°
2026-04-26 00:09 43.60536 -6.20223 3735 ft 144 kts 133°
2026-04-26 00:09 43.60047 -6.19075 3736 ft 139 kts 107°
2026-04-26 00:10 43.59760 -6.17859 3736 ft 138 kts 107°
2026-04-26 00:10 43.59467 -6.16614 3680 ft 132 kts 107°
2026-04-26 00:10 43.59200 -6.15431 3522 ft 128 kts 106°
2026-04-26 00:10 43.58944 -6.14266 3229 ft 126 kts 106°
2026-04-26 00:11 43.58683 -6.13118 2912 ft 125 kts 107°
2026-04-26 00:11 43.58400 -6.11965 2472 ft 129 kts 109°
2026-04-26 00:11 43.58090 -6.10747 1853 ft 141 kts 106°
2026-04-26 00:11 43.57796 -6.09423 1254 ft 145 kts 108°
2026-04-26 00:12 43.57475 -6.08128 860 ft 137 kts 108°
2026-04-26 00:12 43.57187 -6.06918 668 ft 130 kts 107°
2026-04-26 00:12 43.56902 -6.05747 515 ft 126 kts 108°
2026-04-26 00:12 43.56626 -6.04588 454 ft 128 kts 108°
2026-04-26 00:13 43.56384 -6.03564 408 ft 82 kts 108°
2026-04-26 00:13 43.56288 -6.03163 409 ft 15 kts 112°